Elektro-L No. 1

operational
NORAD ID: 37344 Int'l Des: 2011-001 Owner: RGMS/NPOL Country: RU
HEOCIRCULAR
追跡 地上

Elektro-L No. 1について

説明を読み込み中...

リアルタイム位置

3D地球を読み込み中...

次回通過

高度履歴

Altitude vs Time

uPlot chart will show altitude changes over time

軌道要素

1 37344U 11001A 26071.41474293 -.00000251 00000-0 00000-0 0 9993
2 37344 9.4665 55.4726 0003644 13.5727 177.6577 1.00172084 55513
Epoch: Mar 12, 2026 • Age: 27 hours

現在のステータス

高度 35809.9 km
速度 3.07 km/s
衛星直下点 9.47°N, 72.88°W
打ち上げ日 Jan 20, 2011
運用期間 15.1 years
タイプ other

技術仕様

分類 Payload
質量 1620.00 kg
乾燥質量 1180.00 kg
総質量 1620.00 kg
長さ 2.00 m
直径 2.00 m
スパン 10.00 m
形状 Box + Pan + Ant
製造者 NPOL
バスタイプ Navigator
フェーズステータス In Orbit
所有者/国 RGMS/NPOL/RU

大規模コンステレーション

Loading constellations...